Location: Newark
(49.3000°N, 9.4667°E)
Time: 21:05:04
(UTC+00:00)

S-56A Canister/Altair - Pass Details

Date: 20 May 2019
Orbit: 633 x 2499 km, 38.9° (Epoch: 19 June)

Event Time Altitude Azimuth Distance (km) Brightness Sun altitude
Exits shadow 01:57:17 15° 208° (SSW) 2,755 9.7 -12.4°
Maximum altitude 02:02:49 34° 153° (SSE) 2,259 9.7 -11.8°
Drops below altitude 10° 02:12:17 10° 95° (E) 4,336 11.9 -10.8°
Sets 02:16:46 0° 88° (E) 5,617 12.7 -10.3°
